EW3517 Weather Reports


Display with metric or nautical units.
time (UTC)temp
F
wind
direction
speed
MPH
gust
MPH
rain 1hr
in
rain 24hr
in
rain mn
in
humidity
%
barometer
mb
20260904180038 95 87 0.0 0.0 0.00 0.00 0.00 47 1008.6
20260904174533 95 225 0.0 0.0 0.00 0.00 0.00 50 1008.8
20260904173029 94 168 0.0 0.0 0.00 0.00 0.00 50 1009.1
20260904171525 93 124 0.0 0.0 0.00 0.00 0.00 50 1009.2
20260904170022 93 215 0.0 0.0 0.00 0.00 0.00 51 1009.4
20260904164519 92 210 0.0 0.0 0.00 0.00 0.00 53 1009.4
20260904163027 91 360 0.0 0.0 0.00 0.00 0.00 55 1009.5
20260904161512 90 331 0.0 0.0 0.00 0.00 0.00 56 1009.5
20260904160008 89 266 0.0 1.0 0.00 0.00 0.00 58 1009.4
20260904154507 89 271 0.0 0.0 0.00 0.00 0.00 59 1009.2
20260904153016 88 45 0.0 0.0 0.00 0.00 0.00 60 1009.4
20260904151614 87 121 0.0 0.0 0.00 0.00 0.00 63 1009.4
20260904150123 86 108 0.0 0.0 0.00 0.00 0.00 64 1009.4
20260904144555 85 277 0.0 0.0 0.00 0.00 0.00 67 1009.3
20260904143050 83 273 0.0 1.0 0.00 0.00 0.00 68 1009.3
20260904141547 82 136 0.0 0.0 0.00 0.00 0.00 70 1009.4
20260904140045 81 160 0.0 0.0 0.00 0.00 0.00 71 1009.5
20260904134553 81 163 0.0 0.0 0.00 0.00 0.00 72 1009.5
20260904133043 80 116 0.0 0.0 0.00 0.00 0.00 73 1009.4
20260904131543 79 155 0.0 0.0 0.00 0.00 0.00 74 1009.3
20260904130040 78 143 0.0 0.0 0.00 0.00 0.00 76 1009.3
20260904124538 77 159 0.0 0.0 0.00 0.00 0.00 77 1009.1
20260904123034 77 113 0.0 0.0 0.00 0.00 0.00 77 1008.9
20260904121533 77 153 0.0 0.0 0.00 0.00 0.00 78 1008.9
20260904120033 77 144 0.0 0.0 0.00 0.00 0.00 78 1008.6
20260904114535 77 146 0.0 0.0 0.00 0.00 0.00 77 1008.6
20260904113028 77 126 0.0 0.0 0.00 0.00 0.00 77 1008.6
20260904111530 77 163 0.0 0.0 0.00 0.00 0.00 77 1008.6
20260904110027 77 161 0.0 0.0 0.00 0.00 0.00 77 1008.6
20260904104524 78 175 0.0 0.0 0.00 0.00 0.00 76 1008.5
20260904103022 78 138 0.0 0.0 0.00 0.00 0.00 75 1008.5
20260904101520 79 165 0.0 0.0 0.00 0.00 0.00 73 1008.6
20260904100016 80 150 0.0 0.0 0.00 0.00 0.00 70 1008.4
20260904094532 80 138 0.0 0.0 0.00 0.00 0.00 70 1008.5
20260904093015 80 80 0.0 0.0 0.00 0.00 0.00 70 1008.4
20260904091515 80 135 0.0 0.0 0.00 0.00 0.00 70 1008.3
20260904090014 80 130 0.0 0.0 0.00 0.00 0.00 70 1008.3
20260904084515 80 154 0.0 0.0 0.00 0.00 0.00 72 1008.2
20260904083021 80 20 0.0 0.0 0.00 0.00 0.00 73 1008.2
20260904081512 80 161 0.0 0.0 0.00 0.00 0.00 73 1008.1
20260904080012 81 152 0.0 0.0 0.00 0.00 0.00 73 1007.9
20260904074509 80 143 0.0 0.0 0.00 0.00 0.00 74 1007.9
20260904073008 80 277 0.0 0.0 0.00 0.00 0.00 74 1008.1
20260904071507 80 312 0.0 0.0 0.00 0.00 0.00 74 1008.2
20260904070004 81 146 0.0 0.0 0.00 0.00 0.00 73 1008.1
20260904064504 81 149 0.0 0.0 0.00 0.00 0.00 73 1008.2
20260904063002 81 142 0.0 0.0 0.00 0.00 0.00 73 1008.4
20260904061600 81 159 0.0 0.0 0.00 0.00 0.00 73 1008.4
20260904060059 81 161 0.0 0.0 0.00 0.00 0.00 72 1008.4
20260904054600 82 242 0.0 0.0 0.00 0.00 0.00 72 1008.4
20260904053055 82 286 0.0 0.0 0.00 0.00 0.00 71 1008.3
20260904051558 82 134 0.0 0.0 0.00 0.00 0.00 70 1008.1
20260904050049 82 125 0.0 0.0 0.00 0.00 0.00 70 1008.1
20260904044548 83 154 0.0 0.0 0.00 0.00 0.00 69 1008.1
20260904043052 83 145 0.0 0.0 0.00 0.00 0.00 68 1008.3
20260904041548 83 146 0.0 0.0 0.00 0.00 0.00 67 1008.2
20260904040100 84 120 0.0 0.0 0.00 0.00 0.00 66 1008.3
20260904034552 84 169 0.0 0.0 0.00 0.00 0.00 65 1008.4
20260904033046 85 115 0.0 0.0 0.00 0.00 0.00 64 1008.3
20260904031545 85 142 0.0 0.0 0.00 0.00 0.00 63 1008.2
20260904030045 85 150 0.0 0.0 0.00 0.00 0.00 63 1008.2
20260904024548 86 109 0.0 0.0 0.00 0.00 0.00 62 1008.0
20260904023055 86 169 0.0 0.0 0.00 0.00 0.00 61 1007.8
20260904021543 87 152 0.0 0.0 0.00 0.00 0.00 60 1007.6
20260904020042 87 168 0.0 0.0 0.00 0.00 0.00 59 1007.4
20260904014556 88 168 0.0 0.0 0.00 0.00 0.00 58 1007.2
20260904013046 88 123 0.0 0.0 0.00 0.00 0.00 57 1006.8
20260904011542 89 128 0.0 0.0 0.00 0.00 0.00 57 1006.6
20260904010045 89 144 0.0 0.0 0.00 0.00 0.00 55 1006.4
20260904004543 90 148 0.0 1.0 0.00 0.00 0.00 54 1006.1
20260904003039 91 146 0.0 0.0 0.00 0.00 0.00 52 1006.1
20260904001539 92 161 0.0 0.0 0.00 0.00 0.00 52 1006.0
20260904000038 92 137 0.0 1.0 0.00 0.00 0.00 51 1006.0
20260903234537 93 156 0.0 0.0 0.00 0.00 0.00 51 1005.9
20260903233036 93 98 0.0 0.0 0.00 0.00 0.00 50 1005.8
20260903231538 93 150 0.0 0.0 0.00 0.00 0.00 49 1005.8
20260903230037 94 126 0.0 0.0 0.00 0.00 0.00 49 1005.6
20260903224550 94 165 0.0 0.0 0.00 0.00 0.00 47 1005.6
20260903223030 95 126 0.0 0.0 0.00 0.00 0.00 47 1005.7
20260903221533 94 144 0.0 0.0 0.00 0.00 0.00 47 1005.7
20260903220030 95 147 0.0 0.0 0.00 0.00 0.00 47 1005.7
20260903214537 95 107 0.0 0.0 0.00 0.00 0.00 48 1005.9
20260903213031 95 178 0.0 0.0 0.00 0.00 0.00 48 1005.9
20260903211523 95 135 0.0 0.0 0.00 0.00 0.00 48 1006.0
20260903210022 96 111 0.0 0.0 0.00 0.00 0.00 46 1006.1
20260903204520 95 173 0.0 0.0 0.00 0.00 0.00 48 1006.2
20260903203017 95 169 0.0 0.0 0.00 0.00 0.00 48 1006.5
20260903201515 95 175 0.0 0.0 0.00 0.00 0.00 48 1006.6
20260903200014 96 68 0.0 0.0 0.00 0.00 0.00 47 1006.8
20260903194513 96 159 0.0 0.0 0.00 0.00 0.00 47 1006.8
20260903193011 96 90 0.0 1.0 0.00 0.00 0.00 46 1007.0
20260903191508 95 162 0.0 0.0 0.00 0.00 0.00 48 1007.1
20260903190005 96 152 0.0 0.0 0.00 0.00 0.00 47 1007.3
20260903184600 95 259 0.0 0.0 0.00 0.00 0.00 50 1007.5
20260903183057 94 307 0.0 0.0 0.00 0.00 0.00 51 1007.8
20260903181551 93 101 0.0 0.0 0.00 0.00 0.00 51 1007.9